McCall, ID

12:15 AM MDT on September 26, 2017 (GMT -0600)
McCall

Weather History for KMYL - November, 2011

Change the Weather History Date:

Wednesday, November 23, 2011

  Actual Average Record
Temperature  
Mean Temperature 37 °F 25 °F  
Max Temperature 42 °F 33 °F 57 °F (1936)
Min Temperature 32 °F 17 °F -14 °F (1985)
Degree Days  
Heating Degree Days 28 40  
Month to date heating degree days 869 804  
Since 1 July heating degree days 1898 2347  
Cooling Degree Days 0 0  
Month to date cooling degree days 0 0  
Year to date cooling degree days 56 25  
Moisture  
Dew Point 28 °F    
Average Humidity 75    
Maximum Humidity 100    
Minimum Humidity 49    
Precipitation  
Precipitation 0.00 in 0.07 in 0.84 in (1949)
Month to date precipitation 1.35 2.22  
Year to date precipitation 22.62 17.54  
Sea Level Pressure  
Sea Level Pressure 29.87 in    
Wind  
Wind Speed 5 mph (SE)    
Max Wind Speed 13 mph    
Max Gust Speed 18 mph    
Visibility 10 miles    
Events      
T = Trace of Precipitation, MM = Missing Value Source: NWS Daily Summary

Daily Weather History Graph

Daily Weather History Graph

Search for Another Location

Airport or City:

Trip Planner

Search our weather history database for the weather conditions in past years. The results will help you decide how hot, cold, wet, or windy it might be!

Date:

Astronomy

Nov. 23, 2011 Rise Set
Actual Time 7:52 AM MST 5:09 PM MST
Civil Twilight 7:19 AM MST 5:41 PM MST
Nautical Twilight 6:43 AM MST 6:17 PM MST
Astronomical Twilight 6:08 AM MST 6:52 PM MST
Moon 6:00 AM MST (11/23) 3:54 PM MST (11/23)
Length of Visible Light 10h 21m
Length of Day
9h 17m
Waning Crescent, 3% of the Moon is Illuminated
Nov 23
Waning Crescent
Nov 24
New
Dec 2
First Quarter
Dec 10
Full
Dec 17
Last Quarter

Hourly Weather History & Observations

Time (MST) Temp. Windchill Dew Point Humidity Pressure Visibility Wind Dir Wind Speed Gust Speed Precip Events Conditions
12:51 AM 33.1 °F 28.7 °F 32.0 °F 96% 30.03 in 10.0 mi NNE 4.6 mph - N/A   Partly Cloudy
1:51 AM 33.1 °F 28.7 °F 32.0 °F 96% 30.00 in 10.0 mi North 4.6 mph - N/A   Clear
2:51 AM 33.1 °F 30.0 °F 32.0 °F 96% 29.98 in 10.0 mi North 3.5 mph - N/A   Clear
3:51 AM 32.0 °F 28.7 °F 32.0 °F 100% 29.97 in 10.0 mi North 3.5 mph - N/A   Clear
4:51 AM 33.1 °F - 30.9 °F 92% 29.95 in 10.0 mi Calm Calm - N/A   Clear
5:51 AM 39.0 °F 33.4 °F 28.0 °F 65% 29.93 in 10.0 mi SE 8.1 mph - N/A   Scattered Clouds
6:51 AM 35.1 °F - 28.9 °F 78% 29.94 in 10.0 mi Calm Calm - N/A   Partly Cloudy
7:51 AM 34.0 °F 31.0 °F 30.0 °F 85% 29.94 in 10.0 mi Variable 3.5 mph - N/A   Clear
8:51 AM 34.0 °F 31.0 °F 30.9 °F 89% 29.94 in 10.0 mi Variable 3.5 mph - N/A   Clear
9:51 AM 39.0 °F 34.0 °F 27.0 °F 62% 29.91 in 10.0 mi SE 6.9 mph - N/A   Clear
10:51 AM 41.0 °F 34.3 °F 26.1 °F 55% 29.90 in 10.0 mi SSE 11.5 mph - N/A   Clear
11:51 AM 42.1 °F 35.7 °F 25.0 °F 51% 29.88 in 10.0 mi SSE 11.5 mph - N/A   Partly Cloudy
1:51 PM 42.1 °F 37.1 °F 25.0 °F 51% 29.83 in 10.0 mi SSE 8.1 mph - N/A   Scattered Clouds
2:51 PM 42.1 °F 36.6 °F 24.1 °F 49% 29.81 in 10.0 mi SE 9.2 mph - N/A   Clear
3:51 PM 41.0 °F 39.0 °F 25.0 °F 53% 29.80 in 10.0 mi SSW 3.5 mph - N/A   Clear
4:51 PM 41.0 °F 35.8 °F 24.1 °F 51% 29.79 in 10.0 mi SSE 8.1 mph - N/A   Clear
5:51 PM 35.1 °F - 28.0 °F 76% 29.78 in 10.0 mi Calm Calm - N/A   Scattered Clouds
6:51 PM 39.0 °F - 25.0 °F 57% 29.78 in 10.0 mi Calm Calm - N/A   Clear
7:51 PM 35.1 °F - 30.0 °F 82% 29.79 in 10.0 mi Calm Calm - N/A   Mostly Cloudy
8:51 PM 35.1 °F - 28.9 °F 78% 29.79 in 10.0 mi Calm Calm - N/A   Overcast
9:51 PM 37.9 °F 35.5 °F 26.1 °F 62% 29.77 in 10.0 mi WSW 3.5 mph - N/A   Mostly Cloudy
10:51 PM 35.1 °F - 28.9 °F 78% 29.78 in 8.0 mi Calm Calm - N/A   Mostly Cloudy
11:51 PM 39.0 °F 34.8 °F 25.0 °F 57% 29.75 in 10.0 mi Variable 5.8 mph - N/A   Clear